CAPE
0 0 0 1 1 1 0 0 0 0 1 0 0 0 0 0 0 0 0 0 0 0 1 12 9 4 5 3 1 0 1 0 0 0 0 0 0 0
1 0 2 5 2 1 1 0 0 0 0 0 0 0 0 0 0 0 0 0 0 0 0 4 0 0 0 1 0 0 0 0 0 0 0 0 0 0
1 1 0 6 6 1 1 0 1 0 1 0 0 0 0 0 0 0 0 0 0 0 0 0 0 0 0 0 0 0 0 0 0 0 0 0 0 0
1 1 0 2 2 5 2 1 0 0 0 0 0 0 0 0 0 0 0 0 0 0 0 0 0 0 0 0 0 0 0 0 0 0 0 0 0 0
1 1 1 1 1 1 12 1 0 0 0 0 0 0 0 0 0 0 0 0 0 0 0 0 0 0 0 0 0 0 0 0 0 0 0 0 0 0
0 0 0 0 1 2 4 8 0 0 1 1 1 0 0 0 1 1 1 1 1 0 0 1 0 4 1 1 0 0 0 0 0 0 0 0 0 0
0 0 0 0 0 0 7 8 5 0 1 1 1 1 1 2 1 0 2 1 0 0 1 1 1 2 2 3 0 0 0 0 0 0 0 0 0 0
0 0 0 0 0 3 7 0 3 1 0 0 2 2 1 1 0 1 1 0 0 1 0 0 1 1 2 0 2 0 0 0 0 0 0 0 0 0
0 0 0 0 0 1 0 0 0 0 0 0 1 1 1 0 0 0 1 0 0 1 0 0 0 0 0 2 2 0 0 0 0 0 0 0 0 0
0 0 0 0 0 0 0 0 0 0 0 0 0 0 0 0 1 0 0 0 1 0 0 0 0 1 0 0 0 0 0 0 0 0 0 0 0 0
0 0 0 0 0 0 0 0 0 0 0 0 1 0 1 0 0 1 1 0 0 0 0 0 0 0 0 0 0 0 0 0 0 0 0 0 0 0
1 0 0 0 1 0 0 0 0 1 0 0 0 0 0 0 0 0 0 0 1 0 0 0 1 0 0 0 0 0 0 0 0 0 0 0 0 0
1 0 0 0 0 0 0 0 0 1 1 1 1 1 1 1 0 0 0 0 1 0 0 0 0 0 0 0 0 0 0 0 0 0 0 0 0 0
0 1 0 0 1 1 0 1 1 0 1 0 0 0 0 0 0 0 0 0 0 0 0 0 0 0 0 0 0 0 0 0 0 0 0 0 0 0
0 0 0 1 0 0 1 1 1 0 1 1 1 1 1 1 1 1 2 0 0 0 0 0 0 0 0 0 0 0 0 0 0 0 0 0 0 0
1 1 1 1 0 0 1 0 1 1 1 1 0 1 1 0 1 1 0 0 0 0 0 0 0 0 0 0 0 0 0 0 0 0 0 0 0 0
1 1 0 1 1 0 0 0 0 0 0 1 0 0 0 0 0 0 0 0 0 0 0 0 0 0 0 0 0 0 0 0 0 0 0 0 0 0
1 1 1 1 0 0 0 0 0 0 1 0 0 0 0 0 0 0 0 0 0 0 0 0 0 0 0 0 0 0 0 0 0 0 0 0 0 0
2 1 1 0 0 0 0 0 0 0 0 0 0 0 0 0 0 0 0 0 0 0 0 0 0 0 0 0 0 0 0 0 0 0 0 0 0 0
0 0 0 0 0 0 0 0 0 0 0 0 0 0 0 0 0 0 0 0 0 0 0 0 0 0 0 0 0 0 0 0 0 0 0 0 0 0
0 0 0 0 0 0 0 0 0 0 0 0 0 0 0 0 0 0 0 0 0 0 0 0 0 0 0 0 0 0 0 0 0 0 0 0 0 0
0 0 0 0 0 0 0 0 0 0 0 0 0 0 0 0 0 0 0 0 0 0 0 0 0 0 0 0 0 0 0 0 0 0 0 0 0 0
0 0 0 0 0 0 0 0 0 0 0 0 0 0 0 0 0 0 0 0 0 0 0 0 0 0 0 0 0 0 0 0 0 0 0 0 0 0
CIN
-0 -0 -0 -0 -0 -0 -0 -0 -0 -0 -0 -0 -0 -0 -0 -0 -0 -0 -0 -0 -0 -0 -8 -3 -2 -2 -1 -0 -0 -0 -0 -0 -0 -0 -0 -0 -0 -0
-0 -0 -0 -0 -0 -0 -0 -0 -0 -0 -0 -0 -0 -0 -0 -0 -0 -0 -0 -0 -0 -8 -0 -9 -7 -0 -0 -0 -0 -0 -0 -0 -0 -0 -0 -0 -0 -0
-0 -0 -0 -0 -0 -0 -0 -0 -0 -0 -0 -0 -0 -0 -0 -0 -0 -0 -0 -0 -3 -0 -0 -0 -0 -0 -0 -0 -0 -0 -0 -0 -0 -0 -0 -0 -0 -0
-0 -0 -0 -0 -0 -0 -2 -0 -0 -0 -0 -0 -0 -0 -0 -0 -0 -0 -0 -0 -0 -0 -0 -0 -0 -0 -0 -0 -0 -0 -0 -0 -0 -0 -0 -0 -0 -0
-0 -0 -0 -0 -0 -0 -0 -3 -0 -0 -0 -0 -0 -0 -0 -0 -0 -0 -0 -0 -0 -0 -0 -0 -0 -0 -0 -0 -0 -0 -0 -0 -0 -0 -0 -0 -0 -0
-0 -0 -0 -0 -0 -0 -0 -0 -0 -0 -0 -0 -0 -0 -0 -0 -0 -0 -0 -0 -0 -0 -0 -0 -0 -0 -0 -0 -0 -0 -0 -0 -0 -0 -0 -0 -0 -0
-0 -0 -0 -0 -0 -0 -0 -0 -3 -0 -4 -0 -0 -0 -0 -0 -0 -0 -0 -0 -0 -0 -0 -0 -0 -0 -0 -0 -0 -0 -0 -0 -0 -0 -0 -0 -0 -0
-0 -0 -0 -0 -0 -1 -2 -0 -5 -7 -0 -0 -0 -0 -0 -0 -0 -0 -0 -0 -0 -0 -0 -0 -0 -0 -0 -0 -0 -0 -0 -0 -0 -0 -0 -0 -0 -0
-0 -0 -0 -0 -0 -6 -0 -0 -0 -0 -0 -0 -0 -0 -0 -0 -0 -0 -0 -0 -0 -0 -0 -0 -0 -0 -0 -0 -0 -0 -0 -0 -0 -0 -0 -0 -0 -0
-0 -0 -0 -0 -0 -0 -0 -0 -0 -0 -0 -0 -0 -0 -0 -0 -0 -0 -0 -0 -0 -0 -0 -0 -0 -0 -0 -0 -0 -0 -0 -0 -0 -0 -0 -0 -0 -0
-0 -0 -0 -0 -0 -1 -0 -0 -0 -0 -0 -0 -0 -0 -0 -0 -0 -0 -0 -0 -0 -0 -0 -0 -0 -0 -0 -0 -0 -0 -0 -0 -0 -0 -0 -0 -0 -0
-0 -0 -0 -0 -0 -0 -0 -0 -0 -0 -0 -0 -0 -0 -0 -0 -0 -0 -0 -0 -0 -0 -0 -0 -0 -0 -0 -0 -0 -0 -0 -0 -0 -0 -0 -0 -0 -0
-0 -0 -0 -0 -0 -0 -0 -0 -0 -0 -0 -0 -0 -0 -0 -0 -0 -0 -0 -0 -0 -0 -0 -0 -0 -0 -0 -0 -0 -0 -0 -0 -0 -0 -0 -0 -0 -0
-0 -0 -0 -0 -0 -0 -0 -0 -0 -0 -0 -0 -0 -0 -0 -0 -0 -0 -0 -0 -0 -0 -0 -0 -0 -0 -0 -0 -0 -0 -0 -0 -0 -0 -0 -0 -0 -0
-0 -0 -0 -0 -0 -0 -0 -0 -0 -0 -0 -0 -0 -0 -0 -0 -0 -0 -0 -0 -0 -0 -0 -0 -0 -0 -0 -0 -0 -0 -0 -0 -0 -0 -0 -0 -0 -0
-0 -0 -0 -0 -0 -0 -0 -0 -0 -0 -0 -0 -0 -0 -0 -0 -0 -0 -0 -0 -0 -0 -0 -0 -0 -0 -0 -0 -0 -0 -0 -0 -0 -0 -0 -0 -0 -0
-0 -0 -0 -0 -0 -0 -0 -0 -0 -0 -0 -0 -0 -0 -0 -0 -0 -0 -0 -0 -0 -0 -0 -0 -0 -0 -0 -0 -0 -0 -0 -0 -0 -0 -0 -0 -0 -0
-0 -0 -0 -0 -0 -0 -0 -0 -0 -0 -0 -0 -0 -0 -0 -0 -0 -0 -0 -0 -0 -0 -0 -0 -0 -0 -0 -0 -0 -0 -0 -0 -0 -0 -0 -0 -0 -0
-0 -0 -0 -0 -0 -0 -0 -0 -0 -0 -0 -0 -0 -0 -0 -0 -0 -0 -0 -0 -0 -0 -0 -0 -0 -0 -0 -0 -0 -0 -0 -0 -0 -0 -0 -0 -0 -0
-0 -0 -0 -0 -0 -0 -0 -0 -0 -0 -0 -0 -0 -0 -0 -0 -0 -0 -0 -0 -0 -0 -0 -0 -0 -0 -0 -0 -0 -0 -0 -0 -0 -0 -0 -0 -0 -0
-0 -0 -0 -0 -0 -0 -0 -0 -0 -0 -0 -0 -0 -0 -0 -0 -0 -0 -0 -0 -0 -0 -0 -0 -0 -0 -0 -0 -0 -0 -0 -0 -0 -0 -0 -0 -0 -0
-0 -0 -0 -0 -0 -0 -0 -0 -0 -0 -0 -0 -0 -0 -0 -0 -0 -0 -0 -0 -0 -0 -0 -0 -0 -0 -0 -0 -0 -0 -0 -0 -0 -0 -0 -0 -0 -0
-0 -0 -0 -0 -0 -0 -0 -0 -0 -0 -0 -0 -0 -0 -0 -0 -0 -0 -0 -0 -0 -0 -0 -0 -0 -0 -0 -0 -0 -0 -0 -0 -0 -0 -0 -0 -0 -2
Wind_Speed
40 41 44 45 43 43 45 43 45 46 47 40 36 33 31 30 27 23 23 22 20 20 20 21 19 16 16 14 14 15 15 15 16 16 17 18 19 20
37 39 42 42 43 44 44 43 45 48 51 42 40 36 31 30 27 26 23 21 21 20 22 22 20 19 18 16 14 15 16 18 19 18 18 19 19 21
38 39 42 43 43 42 42 44 44 43 48 40 37 34 36 33 30 27 25 23 23 22 21 22 20 19 18 17 15 15 17 17 19 21 20 19 21 21
41 41 43 42 43 43 42 43 43 43 44 44 36 35 35 34 33 30 27 25 24 24 22 22 21 18 18 16 15 15 16 19 19 21 21 21 22 22
37 38 40 41 44 42 41 41 43 42 41 39 36 32 32 30 30 30 29 25 24 24 23 22 21 18 17 16 15 15 17 19 20 21 20 22 22 21
36 38 40 41 44 45 41 40 39 39 39 39 34 33 30 28 29 29 29 27 26 26 24 24 21 19 18 17 17 17 18 19 20 20 21 21 21 19
37 38 37 39 40 42 37 35 33 37 33 36 31 31 31 30 31 30 31 28 26 26 25 24 22 20 19 18 19 19 20 19 19 20 22 21 20 20
41 38 37 40 41 34 30 28 23 29 32 30 30 31 31 32 30 31 29 28 28 25 26 26 22 21 20 20 21 20 19 18 19 21 23 23 21 21
36 37 38 37 32 25 20 16 17 19 23 27 28 29 28 29 28 29 29 30 30 23 22 25 21 21 20 21 20 17 17 17 19 22 25 24 22 19
35 32 33 33 27 15 16 17 12 9 14 20 23 23 23 25 24 24 22 21 18 18 18 23 19 20 19 20 16 14 15 16 21 23 22 22 19 18
33 26 27 23 20 16 11 11 9 8 7 9 11 13 14 16 18 16 18 18 20 20 18 20 18 17 17 15 12 10 13 17 20 20 19 16 15 20
31 27 23 23 18 14 8 7 7 7 5 4 9 8 8 9 12 14 16 16 15 17 17 18 13 15 17 17 14 15 17 18 15 12 12 13 16 19
30 27 25 19 14 9 8 8 6 8 9 10 7 4 3 5 7 8 10 11 13 16 11 15 14 14 16 17 16 14 13 13 11 12 11 13 15 16
28 25 23 15 11 7 6 6 8 8 10 10 9 8 7 4 2 4 4 5 7 5 6 9 12 12 15 16 17 12 10 8 9 13 16 18 17 16
25 22 17 10 7 4 5 6 6 7 7 8 9 9 9 8 7 5 4 3 1 3 6 9 7 8 11 15 13 11 12 13 13 17 18 20 22 22
19 15 12 6 7 3 2 2 3 4 6 9 9 10 10 10 8 6 4 3 3 5 7 7 6 8 10 12 14 14 15 15 15 17 20 23 25 25
12 11 14 9 4 4 3 1 3 6 6 8 10 10 9 9 8 7 5 3 4 4 5 7 8 9 10 12 14 15 18 20 21 23 26 28 29 29
10 12 17 12 8 5 2 2 1 4 6 7 8 9 8 8 7 6 5 4 4 3 4 5 7 10 13 15 13 16 18 19 22 24 26 31 34 32
11 12 17 11 9 5 6 2 1 1 4 5 7 7 6 6 6 5 4 4 5 5 5 5 7 11 14 17 20 11 18 21 25 28 31 33 37 36
8 8 16 13 7 5 4 4 2 0 2 3 4 5 6 6 5 5 4 4 5 6 7 8 9 12 16 18 20 20 18 24 29 34 36 36 36 37
6 8 14 7 7 6 4 2 1 1 2 4 5 5 5 5 5 5 4 4 6 8 11 14 14 14 15 19 25 27 26 25 28 32 34 38 41 41
6 9 10 5 6 4 2 2 1 3 4 5 5 4 4 5 4 5 5 6 7 10 13 15 14 19 23 26 29 31 31 29 29 31 34 36 42 49
6 7 6 5 4 3 2 3 4 4 4 4 4 5 5 5 5 6 6 8 10 13 15 18 20 23 26 28 31 34 34 35 36 38 37 36 40 43
Wind_Direction
298 293 287 283 282 276 271 269 266 269 265 262 264 259 253 249 245 243 240 237 233 237 237 246 246 248 255 251 262 274 283 293 300 309 316 319 321 324
302 301 297 291 283 277 272 270 265 265 268 260 258 256 250 253 244 243 241 237 238 230 233 241 244 248 252 257 260 269 280 289 294 306 312 314 317 319
301 301 301 298 290 282 274 268 266 262 264 266 258 256 247 247 246 243 241 247 246 229 224 234 239 247 251 253 264 270 277 287 294 301 305 310 312 315
300 300 300 300 295 287 279 270 265 262 260 262 256 250 245 245 243 241 243 249 243 232 225 231 239 242 245 251 265 273 280 288 293 298 301 306 309 310
307 305 304 304 299 294 285 274 266 263 259 258 257 250 244 242 240 244 244 244 243 231 229 233 234 236 242 254 265 274 283 289 293 297 301 304 305 308
310 310 307 305 302 292 291 281 267 262 258 255 253 248 239 239 238 237 243 243 240 236 236 237 235 238 247 257 266 276 282 290 293 296 300 304 304 305
310 311 309 308 306 298 296 286 271 260 259 252 248 244 241 235 236 240 242 242 238 232 234 237 239 248 253 259 270 277 285 289 292 296 299 300 300 300
309 315 313 306 306 307 303 290 277 263 258 252 248 242 241 236 238 234 237 235 238 238 233 242 242 247 255 263 271 278 282 285 291 295 295 295 295 296
313 313 311 307 319 322 322 310 299 281 262 253 248 242 237 229 234 233 234 234 246 241 230 245 243 251 258 267 270 274 280 281 287 291 291 292 294 299
308 315 315 309 328 331 323 328 329 304 274 262 255 250 246 234 234 238 233 239 245 237 240 254 248 259 261 270 264 265 274 281 288 289 293 296 299 304
306 317 316 324 337 329 339 340 332 339 316 276 262 250 241 233 225 216 225 229 239 245 252 263 257 264 267 267 267 260 276 285 292 294 295 302 308 310
304 310 315 316 336 328 341 22 22 26 39 319 270 256 232 214 201 218 222 228 236 256 254 269 245 260 271 268 269 277 285 293 298 303 304 305 310 314
300 302 304 313 335 344 335 354 24 36 60 85 81 88 153 201 217 219 223 221 242 265 242 263 247 255 274 277 278 285 296 302 304 308 305 308 310 312
295 298 298 307 328 333 0 53 67 53 63 73 81 86 100 114 191 200 197 237 255 251 192 266 267 265 278 285 288 290 299 316 313 314 315 315 314 311
292 294 294 309 337 355 73 77 67 69 75 76 80 78 82 86 88 92 97 95 26 319 298 294 293 292 291 295 301 307 306 312 315 313 314 313 313 314
294 293 284 322 325 49 63 51 61 75 83 80 78 79 77 76 75 77 80 63 15 328 338 348 354 326 311 310 311 310 316 313 320 316 315 314 313 314
294 281 264 273 295 263 257 2 65 75 75 80 86 87 83 79 74 73 70 41 339 335 336 345 343 339 331 322 313 311 310 309 311 312 312 310 311 313
280 266 257 255 258 238 204 118 12 71 79 80 81 83 84 81 81 73 68 49 36 20 1 350 345 337 327 318 314 314 313 313 313 314 314 312 311 313
271 262 248 243 251 244 238 234 247 82 83 71 77 80 75 74 79 71 62 41 19 15 5 355 338 328 321 316 320 309 316 317 318 316 316 314 312 313
268 256 242 240 236 231 219 239 264 214 50 53 59 66 72 82 77 63 48 28 12 353 345 341 332 325 321 320 322 325 321 318 316 314 313 314 313 313
266 251 237 229 231 223 213 247 172 7 45 67 80 83 78 78 68 58 43 17 354 341 334 329 333 338 334 330 322 320 321 319 318 316 317 315 314 314
261 246 239 218 226 221 217 161 117 101 92 85 85 76 69 67 52 45 22 10 356 343 335 336 340 334 328 324 321 321 322 323 322 319 316 313 313 311
259 248 235 222 208 217 156 132 116 106 93 89 76 89 78 55 50 33 14 2 357 347 340 335 333 331 327 325 323 322 322 321 320 319 317 316 314 312